This demonstration page uses our WeatherBlox Daily Observations layout. Learn more.

Left ArrowRight Arrow

39.01783, -85.05884

Hourly Observations for March 9, 2015

Temp ( °F °C ) Dew Point ( °F °C ) Humidity (%) Winds ( mph kmh ) Pressure ( in mb ) Visibility ( mi km ) Precip ( " mm )
12:52 am 00:52 Partly Cloudy 41 5 29 -1.7 62 62 SSW 8 13 30.16 1021 10 16 0.00 0.00
1:52 am 01:52 Mostly Cloudy 43 6.1 29 -1.7 58 58 SW 10 17 30.15 1021 10 16 0.00 0.00
2:52 am 02:52 Mostly Cloudy 43 6.1 29 -1.7 58 58 WSW 7 11 30.16 1021 10 16 0.00 0.00
3:52 am 03:52 Mostly Cloudy 42 5.6 29 -1.7 60 60 WSW 3 6 30.17 1022 10 16 0.00 0.00
4:52 am 04:52 Mostly Cloudy 41 5 29 -1.7 62 62 SW 3 6 30.18 1022 10 16 0.00 0.00
5:52 am 05:52 Mostly Cloudy 38 3.3 29 -1.7 70 70 SSW 3 6 30.18 1022 10 16 0.00 0.00
6:52 am 06:52 Mostly Cloudy 34 1.1 28 -2.2 79 79 SSW 5 7 30.19 1022 10 16 0.00 0.00
8:52 am 08:52 Mostly Cloudy 35 1.7 29 -1.7 78 78 Calm 30.22 1023 10 16 0.00 0.00
9:52 am 09:52 Mostly Cloudy 41 5 34 1.1 76 76 Calm 30.24 1024 10 16 0.00 0.00
10:52 am 10:52 Cloudy 44 6.7 34 1.1 68 68 WSW 5 7 30.25 1024 10 16 0.00 0.00
11:22 am 11:22 Cloudy 46 8 36 2 66 66 WSW 7 11 30.27 1025 10 16 0.00 0.00
11:52 am 11:52 Mostly Cloudy 49 9.4 39 3.9 69 69 W 12 19 30.23 1024 10 16 0.00 0.00
12:52 pm 12:52 Mostly Cloudy 50 10 40 4.4 68 68 W 7 11 30.22 1024 10 16 0.00 0.00
1:52 pm 13:52 Mostly Cloudy 52 11.1 40 4.4 64 64 VRB 5 7 30.21 1023 10 16 0.00 0.00
2:52 pm 14:52 Partly Cloudy 54 12 41 5 63 63 SSW 6 9 30.18 1022 10 16 0.00 0.00
3:52 pm 15:52 Mostly Cloudy 54 12.2 40 4.4 59 59 SW 9 15 30.17 1022 10 16 0.00 0.00
4:52 pm 16:52 Mostly Cloudy 54 12.2 40 4.4 59 59 SSW 10 17 30.17 1022 10 16 0.00 0.00
5:52 pm 17:52 Cloudy 53 11.7 40 4.4 61 61 SSW 9 15 30.17 1022 10 16 0.00 0.00
6:52 pm 18:52 Cloudy 52 11.1 40 4.4 64 64 WSW 5 7 30.17 1022 10 16 0.00 0.00
7:52 pm 19:52 Cloudy 49 9.4 39 3.9 69 69 SSW 3 6 30.18 1022 10 16 0.00 0.00
8:52 pm 20:52 Mostly Cloudy 49 9.4 39 3.9 69 69 SW 3 6 30.19 1022 10 16 0.00 0.00
9:52 pm 21:52 Cloudy 48 8.9 39 3.9 71 71 Calm 30.19 1022 10 16 0.00 0.00
10:52 pm 22:52 Cloudy 46 7.8 39 3.9 77 77 Calm 30.19 1022 10 16 0.00 0.00
11:52 pm 23:52 Cloudy 47 8.3 39 3.9 74 74 Calm 30.17 1022 10 16 0.00 0.00

Powered by AerisWeather